Location: Moscow
(30.9132°N, 94.8252°W)
Time: 13:49:52
(UTC+00:00)

Delta 142 - Pass Details

Date: 15 November 2025
Orbit: 548 x 1568 km, 28.4° (Epoch: 06 December)

Event Time Altitude Azimuth Distance (km) Brightness Sun altitude
Exits shadow 10:52:53 59° 158° (SSE) 634 3.6 -24.3°
Drops below altitude 10° 10:56:38 10° 96° (E) 1,808 7.1 -23.5°
Sets 10:58:55 0° 93° (E) 2,730 8.3 -23.1°
